Location: Ammerl�gen
(47.2167°N, 9.6000°E)
Time: 05:15:44
(UTC+00:00)

Envisat - Pass Details

Date: 04 October 2021
Orbit: 764 x 766 km, 98.2° (Epoch: 27 October)

Event Time Altitude Azimuth Distance (km) Brightness Sun altitude
Rises 03:22:05 0° 27° (NNE) 3,242 6.9 -21.4°
Reaches altitude 10° 03:25:04 10° 45° (NE) 2,310 6.4 -20.9°
Maximum altitude 03:28:40 19° 90° (E) 1,751 5.7 -20.3°
Drops below altitude 10° 03:32:15 10° 136° (SE) 2,297 5.8 -19.7°
Sets 03:35:11 0° 153° (SSE) 3,217 6.4 -19.2°
